| time (UTC) | temp F | wind direction | speed MPH | gust MPH | rain 1hr in | rain 24hr in | rain mn in | humidity % | barometer mb |
| 20260507003503 | 46 | 319 | 3.0 | 6.0 | 0.00 | 0.01 | 0.00 | 90 | 1014.4 |
| 20260507003003 | 46 | 315 | 3.0 | 6.0 | 0.00 | 0.01 | 0.00 | 89 | 1014.4 |
| 20260507002503 | 46 | 320 | 4.0 | 7.0 | 0.00 | 0.01 | 0.00 | 89 | 1014.3 |
| 20260507002003 | 46 | 324 | 5.0 | 9.0 | 0.00 | 0.01 | 0.00 | 89 | 1014.3 |
| 20260507001503 | 46 | 324 | 4.0 | 9.0 | 0.00 | 0.01 | 0.00 | 89 | 1014.3 |
| 20260507001213 | 46 | 320 | 4.0 | 7.0 | 0.00 | 0.01 | 0.00 | 89 | 1014.4 |
| 20260507000503 | 46 | 321 | 3.0 | 6.0 | 0.00 | 0.01 | 0.00 | 89 | 1014.4 |
| 20260507000015 | 46 | 313 | 3.0 | 7.0 | 0.00 | 0.01 | 0.00 | 89 | 1014.4 |
| 20260506235717 | 46 | 311 | 3.0 | 7.0 | 0.00 | 0.01 | 0.01 | 89 | 1014.4 |
| 20260506235003 | 46 | 321 | 3.0 | 9.0 | 0.00 | 0.01 | 0.01 | 89 | 1014.4 |
| 20260506234505 | 46 | 318 | 3.0 | 9.0 | 0.00 | 0.01 | 0.01 | 89 | 1014.4 |
| 20260506234005 | 46 | 322 | 3.0 | 6.0 | 0.00 | 0.01 | 0.01 | 89 | 1014.4 |
| 20260506233503 | 46 | 323 | 3.0 | 7.0 | 0.00 | 0.01 | 0.01 | 89 | 1014.4 |
| 20260506233217 | 46 | 322 | 3.0 | 7.0 | 0.00 | 0.01 | 0.01 | 89 | 1014.4 |
| 20260506232504 | 46 | 321 | 3.0 | 6.0 | 0.00 | 0.01 | 0.01 | 89 | 1014.4 |
| 20260506232003 | 46 | 325 | 3.0 | 6.0 | 0.00 | 0.01 | 0.01 | 89 | 1014.4 |
| 20260506231504 | 47 | 324 | 4.0 | 7.0 | 0.00 | 0.01 | 0.01 | 89 | 1014.4 |
| 20260506231004 | 47 | 322 | 3.0 | 7.0 | 0.00 | 0.01 | 0.01 | 89 | 1014.3 |
| 20260506230503 | 47 | 326 | 2.0 | 5.0 | 0.00 | 0.01 | 0.01 | 89 | 1014.3 |
| 20260506230003 | 47 | 334 | 2.0 | 5.0 | 0.00 | 0.01 | 0.01 | 89 | 1014.3 |
| 20260506225503 | 47 | 337 | 3.0 | 5.0 | 0.00 | 0.01 | 0.01 | 89 | 1014.3 |
| 20260506225215 | 47 | 343 | 3.0 | 6.0 | 0.00 | 0.01 | 0.01 | 89 | 1014.3 |
| 20260506224503 | 47 | 352 | 3.0 | 6.0 | 0.00 | 0.01 | 0.01 | 88 | 1014.3 |
| 20260506224003 | 47 | 346 | 3.0 | 6.0 | 0.00 | 0.01 | 0.01 | 88 | 1014.2 |
| 20260506223714 | 47 | 344 | 3.0 | 6.0 | 0.00 | 0.01 | 0.01 | 88 | 1014.2 |
| 20260506223003 | 47 | 355 | 3.0 | 7.0 | 0.00 | 0.01 | 0.01 | 88 | 1014.2 |
| 20260506222503 | 47 | 353 | 3.0 | 7.0 | 0.00 | 0.01 | 0.01 | 88 | 1014.3 |
| 20260506222005 | 47 | 348 | 3.0 | 6.0 | 0.00 | 0.01 | 0.01 | 88 | 1014.3 |
| 20260506221505 | 47 | 350 | 3.0 | 6.0 | 0.00 | 0.01 | 0.01 | 88 | 1014.3 |
| 20260506221003 | 47 | 352 | 3.0 | 6.0 | 0.00 | 0.01 | 0.01 | 88 | 1014.3 |
| 20260506220504 | 47 | 351 | 3.0 | 6.0 | 0.00 | 0.01 | 0.01 | 88 | 1014.3 |
| 20260506220003 | 47 | 349 | 3.0 | 6.0 | 0.00 | 0.01 | 0.01 | 88 | 1014.3 |
| 20260506215503 | 47 | 353 | 3.0 | 6.0 | 0.00 | 0.01 | 0.01 | 87 | 1014.2 |
| 20260506215003 | 47 | 354 | 3.0 | 7.0 | 0.00 | 0.01 | 0.01 | 87 | 1014.2 |
| 20260506214714 | 47 | 353 | 3.0 | 7.0 | 0.00 | 0.01 | 0.01 | 87 | 1014.2 |
| 20260506214217 | 47 | 357 | 3.0 | 6.0 | 0.00 | 0.01 | 0.01 | 87 | 1014.2 |
| 20260506213715 | 47 | 356 | 3.0 | 7.0 | 0.00 | 0.01 | 0.01 | 87 | 1014.2 |
| 20260506213005 | 47 | 356 | 5.0 | 9.0 | 0.00 | 0.01 | 0.01 | 87 | 1014.2 |
| 20260506212504 | 47 | 355 | 5.0 | 9.0 | 0.00 | 0.01 | 0.01 | 87 | 1014.2 |
| 20260506212003 | 47 | 353 | 4.0 | 7.0 | 0.00 | 0.01 | 0.01 | 86 | 1014.2 |
| 20260506211717 | 47 | 352 | 4.0 | 7.0 | 0.00 | 0.01 | 0.01 | 86 | 1014.2 |
| 20260506211003 | 47 | 351 | 5.0 | 9.0 | 0.00 | 0.01 | 0.01 | 86 | 1014.1 |
| 20260506210504 | 47 | 351 | 6.0 | 9.0 | 0.00 | 0.01 | 0.01 | 86 | 1014.1 |
| 20260506210003 | 47 | 353 | 5.0 | 9.0 | 0.00 | 0.01 | 0.01 | 86 | 1014.1 |
| 20260506205503 | 47 | 356 | 5.0 | 9.0 | 0.00 | 0.01 | 0.01 | 86 | 1014.0 |
| 20260506205003 | 47 | 356 | 5.0 | 9.0 | 0.00 | 0.01 | 0.01 | 85 | 1014.0 |
| 20260506204504 | 48 | 359 | 4.0 | 9.0 | 0.00 | 0.01 | 0.01 | 85 | 1014.0 |
| 20260506204213 | 48 | 360 | 4.0 | 9.0 | 0.00 | 0.01 | 0.01 | 85 | 1013.8 |
| 20260506203503 | 48 | 360 | 4.0 | 9.0 | 0.00 | 0.01 | 0.01 | 85 | 1013.8 |
| 20260506203004 | 48 | 7 | 4.0 | 9.0 | 0.00 | 0.01 | 0.01 | 84 | 1013.8 |
| 20260506202503 | 48 | 7 | 5.0 | 11.0 | 0.00 | 0.01 | 0.01 | 84 | 1013.7 |
| 20260506202215 | 48 | 5 | 5.0 | 12.0 | 0.00 | 0.01 | 0.01 | 84 | 1013.7 |
| 20260506201504 | 48 | 5 | 6.0 | 13.0 | 0.00 | 0.01 | 0.01 | 83 | 1013.7 |
| 20260506201004 | 48 | 2 | 6.0 | 13.0 | 0.00 | 0.01 | 0.01 | 83 | 1013.6 |
| 20260506200504 | 48 | 2 | 6.0 | 13.0 | 0.00 | 0.01 | 0.01 | 83 | 1013.6 |
| 20260506200003 | 48 | 4 | 5.0 | 12.0 | 0.00 | 0.01 | 0.01 | 83 | 1013.6 |
| 20260506195503 | 48 | 7 | 4.0 | 10.0 | 0.00 | 0.01 | 0.01 | 82 | 1013.6 |
| 20260506195003 | 48 | 5 | 5.0 | 11.0 | 0.00 | 0.01 | 0.01 | 82 | 1013.6 |
| 20260506194503 | 48 | 1 | 6.0 | 11.0 | 0.00 | 0.01 | 0.01 | 81 | 1013.6 |
| 20260506194003 | 48 | 1 | 7.0 | 13.0 | 0.00 | 0.01 | 0.01 | 81 | 1013.6 |
| 20260506193503 | 49 | 359 | 8.0 | 13.0 | 0.00 | 0.01 | 0.01 | 80 | 1013.6 |
| 20260506193003 | 49 | 359 | 8.0 | 13.0 | 0.00 | 0.01 | 0.01 | 80 | 1013.6 |
| 20260506192503 | 49 | 360 | 7.0 | 13.0 | 0.00 | 0.01 | 0.01 | 79 | 1013.5 |
| 20260506192215 | 49 | 359 | 7.0 | 14.0 | 0.00 | 0.01 | 0.01 | 78 | 1013.5 |
| 20260506191504 | 50 | 359 | 8.0 | 14.0 | 0.00 | 0.01 | 0.01 | 77 | 1013.5 |
| 20260506191003 | 50 | 2 | 7.0 | 14.0 | 0.00 | 0.01 | 0.01 | 77 | 1013.3 |
| 20260506190504 | 50 | 7 | 6.0 | 14.0 | 0.00 | 0.01 | 0.01 | 76 | 1013.3 |
| 20260506190217 | 50 | 4 | 6.0 | 13.0 | 0.00 | 0.01 | 0.01 | 75 | 1013.3 |
| 20260506185505 | 51 | 7 | 6.0 | 13.0 | 0.00 | 0.01 | 0.01 | 74 | 1013.3 |
| 20260506185218 | 51 | 12 | 6.0 | 13.0 | 0.00 | 0.01 | 0.01 | 74 | 1013.3 |
| 20260506184504 | 51 | 360 | 7.0 | 14.0 | 0.00 | 0.01 | 0.01 | 73 | 1013.3 |
| 20260506184214 | 51 | 358 | 7.0 | 14.0 | 0.00 | 0.01 | 0.01 | 73 | 1013.1 |
| 20260506183504 | 52 | 16 | 6.0 | 13.0 | 0.00 | 0.01 | 0.01 | 72 | 1013.1 |
| 20260506183005 | 52 | 16 | 6.0 | 13.0 | 0.00 | 0.01 | 0.01 | 71 | 1013.1 |
| 20260506182713 | 52 | 16 | 6.0 | 13.0 | 0.00 | 0.01 | 0.01 | 71 | 1013.0 |
| 20260506182216 | 52 | 7 | 6.0 | 13.0 | 0.00 | 0.01 | 0.01 | 71 | 1013.0 |
| 20260506181503 | 52 | 1 | 7.0 | 15.0 | 0.00 | 0.01 | 0.01 | 71 | 1013.0 |
| 20260506181004 | 52 | 2 | 6.0 | 15.0 | 0.00 | 0.01 | 0.01 | 71 | 1012.8 |
| 20260506180504 | 52 | 8 | 6.0 | 12.0 | 0.00 | 0.01 | 0.01 | 70 | 1012.8 |
| 20260506180005 | 52 | 7 | 7.0 | 15.0 | 0.00 | 0.01 | 0.01 | 69 | 1012.8 |
| 20260506175503 | 53 | 360 | 7.0 | 15.0 | 0.00 | 0.01 | 0.01 | 69 | 1012.6 |
| 20260506175004 | 53 | 356 | 8.0 | 14.0 | 0.00 | 0.01 | 0.01 | 68 | 1012.6 |
| 20260506174717 | 53 | 358 | 7.0 | 14.0 | 0.00 | 0.01 | 0.01 | 68 | 1012.6 |
| 20260506174214 | 53 | 5 | 6.0 | 14.0 | 0.00 | 0.01 | 0.01 | 67 | 1012.5 |
| 20260506173504 | 54 | 5 | 7.0 | 15.0 | 0.00 | 0.01 | 0.01 | 66 | 1012.5 |
| 20260506173004 | 54 | 1 | 7.0 | 15.0 | 0.00 | 0.01 | 0.01 | 66 | 1012.5 |
| 20260506172503 | 54 | 1 | 6.0 | 14.0 | 0.00 | 0.01 | 0.01 | 66 | 1012.4 |
| 20260506172004 | 54 | 360 | 5.0 | 13.0 | 0.00 | 0.01 | 0.01 | 67 | 1012.4 |
| 20260506171504 | 53 | 8 | 5.0 | 13.0 | 0.00 | 0.01 | 0.01 | 67 | 1012.4 |
| 20260506171004 | 53 | 22 | 5.0 | 12.0 | 0.00 | 0.01 | 0.01 | 67 | 1012.5 |
| 20260506170504 | 53 | 27 | 5.0 | 12.0 | 0.00 | 0.01 | 0.01 | 66 | 1012.5 |
| 20260506170003 | 54 | 16 | 5.0 | 10.0 | 0.00 | 0.01 | 0.01 | 65 | 1012.5 |
| 20260506165716 | 54 | 20 | 5.0 | 11.0 | 0.00 | 0.01 | 0.01 | 65 | 1012.4 |
| 20260506165003 | 54 | 25 | 4.0 | 11.0 | 0.00 | 0.01 | 0.01 | 65 | 1012.4 |
| 20260506164717 | 54 | 22 | 4.0 | 12.0 | 0.00 | 0.01 | 0.01 | 64 | 1012.4 |
| 20260506164004 | 54 | 23 | 5.0 | 12.0 | 0.00 | 0.01 | 0.01 | 64 | 1012.3 |
| 20260506163503 | 54 | 23 | 6.0 | 12.0 | 0.00 | 0.01 | 0.01 | 63 | 1012.3 |
| 20260506163216 | 54 | 16 | 6.0 | 14.0 | 0.00 | 0.01 | 0.01 | 63 | 1012.3 |
| 20260506162503 | 54 | 6 | 7.0 | 14.0 | 0.00 | 0.01 | 0.01 | 62 | 1012.2 |
| 20260506162004 | 54 | 357 | 7.0 | 15.0 | 0.00 | 0.01 | 0.01 | 62 | 1012.2 |
| 20260506161504 | 54 | 351 | 8.0 | 15.0 | 0.00 | 0.01 | 0.01 | 61 | 1012.2 |
| 20260506161003 | 54 | 344 | 7.0 | 14.0 | 0.00 | 0.01 | 0.01 | 61 | 1012.3 |
| 20260506160716 | 54 | 340 | 8.0 | 15.0 | 0.00 | 0.01 | 0.01 | 60 | 1012.3 |
| 20260506160003 | 55 | 341 | 7.0 | 15.0 | 0.00 | 0.01 | 0.01 | 60 | 1012.3 |
| 20260506155504 | 55 | 345 | 7.0 | 15.0 | 0.00 | 0.01 | 0.01 | 60 | 1012.4 |
| 20260506155003 | 55 | 349 | 7.0 | 15.0 | 0.00 | 0.01 | 0.01 | 60 | 1012.4 |
| 20260506154503 | 55 | 349 | 7.0 | 15.0 | 0.00 | 0.01 | 0.01 | 58 | 1012.4 |
| 20260506154216 | 55 | 350 | 7.0 | 15.0 | 0.00 | 0.01 | 0.01 | 58 | 1012.4 |
| 20260506153503 | 55 | 358 | 8.0 | 14.0 | 0.00 | 0.01 | 0.01 | 57 | 1012.4 |
| 20260506153217 | 55 | 1 | 7.0 | 14.0 | 0.00 | 0.01 | 0.01 | 57 | 1012.4 |
| 20260506152504 | 55 | 2 | 6.0 | 14.0 | 0.00 | 0.01 | 0.01 | 58 | 1012.3 |
| 20260506152003 | 55 | 351 | 7.0 | 14.0 | 0.00 | 0.01 | 0.01 | 57 | 1012.3 |
| 20260506151503 | 56 | 340 | 7.0 | 12.0 | 0.00 | 0.01 | 0.01 | 56 | 1012.3 |
| 20260506151219 | 56 | 336 | 6.0 | 12.0 | 0.00 | 0.01 | 0.01 | 56 | 1012.2 |
| 20260506150503 | 55 | 346 | 7.0 | 14.0 | 0.00 | 0.01 | 0.01 | 56 | 1012.2 |
| 20260506150004 | 56 | 344 | 7.0 | 14.0 | 0.00 | 0.01 | 0.01 | 56 | 1012.2 |
| 20260506145504 | 56 | 334 | 7.0 | 13.0 | 0.00 | 0.01 | 0.01 | 56 | 1012.2 |
| 20260506145215 | 56 | 330 | 7.0 | 13.0 | 0.00 | 0.01 | 0.01 | 56 | 1012.2 |
| 20260506144503 | 56 | 348 | 7.0 | 12.0 | 0.00 | 0.01 | 0.01 | 56 | 1012.2 |
| 20260506144216 | 56 | 352 | 6.0 | 12.0 | 0.00 | 0.01 | 0.01 | 55 | 1012.2 |
| 20260506143503 | 56 | 349 | 7.0 | 13.0 | 0.00 | 0.01 | 0.01 | 56 | 1012.2 |
| 20260506143003 | 56 | 3 | 6.0 | 13.0 | 0.00 | 0.01 | 0.01 | 57 | 1012.2 |
| 20260506142715 | 56 | 5 | 5.0 | 12.0 | 0.00 | 0.01 | 0.01 | 59 | 1012.1 |
| 20260506142218 | 56 | 360 | 5.0 | 11.0 | 0.00 | 0.01 | 0.01 | 58 | 1012.1 |
| 20260506141504 | 55 | 354 | 6.0 | 12.0 | 0.00 | 0.01 | 0.01 | 60 | 1012.1 |
| 20260506141004 | 55 | 357 | 6.0 | 13.0 | 0.00 | 0.01 | 0.01 | 60 | 1012.3 |
| 20260506140503 | 55 | 355 | 7.0 | 13.0 | 0.00 | 0.01 | 0.01 | 60 | 1012.3 |
| 20260506140004 | 55 | 356 | 6.0 | 12.0 | 0.00 | 0.01 | 0.01 | 60 | 1012.3 |
| 20260506135504 | 55 | 2 | 5.0 | 12.0 | 0.00 | 0.01 | 0.01 | 59 | 1012.5 |
| 20260506135004 | 55 | 10 | 5.0 | 12.0 | 0.00 | 0.01 | 0.01 | 61 | 1012.5 |
| 20260506134503 | 54 | 14 | 6.0 | 12.0 | 0.00 | 0.01 | 0.01 | 61 | 1012.5 |
| 20260506134005 | 54 | 22 | 5.0 | 12.0 | 0.00 | 0.01 | 0.01 | 62 | 1012.5 |
| 20260506133503 | 54 | 22 | 5.0 | 12.0 | 0.00 | 0.01 | 0.01 | 62 | 1012.5 |
| 20260506133003 | 54 | 14 | 6.0 | 13.0 | 0.00 | 0.01 | 0.01 | 63 | 1012.5 |
| 20260506132503 | 53 | 6 | 7.0 | 13.0 | 0.00 | 0.01 | 0.01 | 64 | 1012.5 |
| 20260506132005 | 53 | 359 | 7.0 | 17.0 | 0.00 | 0.01 | 0.01 | 64 | 1012.5 |
| 20260506131717 | 54 | 358 | 7.0 | 17.0 | 0.00 | 0.01 | 0.01 | 65 | 1012.5 |
| 20260506131003 | 54 | 20 | 4.0 | 12.0 | 0.00 | 0.01 | 0.01 | 66 | 1012.6 |
| 20260506130503 | 54 | 9 | 5.0 | 11.0 | 0.00 | 0.01 | 0.01 | 66 | 1012.6 |
| 20260506130005 | 54 | 357 | 7.0 | 12.0 | 0.00 | 0.01 | 0.01 | 65 | 1012.6 |
| 20260506125504 | 54 | 355 | 8.0 | 14.0 | 0.00 | 0.01 | 0.01 | 66 | 1012.6 |
| 20260506125003 | 54 | 1 | 7.0 | 14.0 | 0.00 | 0.01 | 0.01 | 65 | 1012.6 |
| 20260506124715 | 54 | 3 | 7.0 | 14.0 | 0.00 | 0.01 | 0.01 | 67 | 1012.6 |
| 20260506124004 | 53 | 6 | 6.0 | 13.0 | 0.00 | 0.01 | 0.01 | 67 | 1012.6 |
| 20260506123504 | 52 | 13 | 6.0 | 15.0 | 0.00 | 0.01 | 0.01 | 70 | 1012.6 |
| 20260506123003 | 52 | 16 | 5.0 | 15.0 | 0.00 | 0.01 | 0.01 | 71 | 1012.6 |
| 20260506122503 | 51 | 7 | 5.0 | 12.0 | 0.00 | 0.01 | 0.01 | 74 | 1012.7 |
| 20260506122003 | 51 | 359 | 6.0 | 12.0 | 0.01 | 0.01 | 0.01 | 75 | 1012.7 |
| 20260506121503 | 50 | 358 | 5.0 | 12.0 | 0.01 | 0.01 | 0.01 | 77 | 1012.7 |
| 20260506121003 | 51 | 8 | 5.0 | 12.0 | 0.01 | 0.01 | 0.01 | 79 | 1012.7 |
| 20260506120503 | 51 | 19 | 5.0 | 12.0 | 0.01 | 0.01 | 0.01 | 78 | 1012.7 |
| 20260506120003 | 51 | 16 | 4.0 | 12.0 | 0.01 | 0.01 | 0.01 | 79 | 1012.7 |
| 20260506115715 | 51 | 20 | 4.0 | 12.0 | 0.01 | 0.01 | 0.01 | 80 | 1012.7 |
| 20260506115212 | 52 | 34 | 3.0 | 7.0 | 0.01 | 0.01 | 0.01 | 81 | 1012.7 |
| 20260506114504 | 51 | 32 | 3.0 | 10.0 | 0.01 | 0.01 | 0.01 | 82 | 1012.7 |
| 20260506114003 | 51 | 33 | 3.0 | 7.0 | 0.01 | 0.01 | 0.01 | 82 | 1012.8 |
| 20260506113504 | 50 | 25 | 3.0 | 7.0 | 0.01 | 0.01 | 0.01 | 83 | 1012.8 |
| 20260506113003 | 50 | 10 | 4.0 | 9.0 | 0.01 | 0.01 | 0.01 | 82 | 1012.8 |
| 20260506112503 | 50 | 12 | 6.0 | 13.0 | 0.01 | 0.01 | 0.01 | 80 | 1012.9 |
| 20260506112004 | 50 | 14 | 7.0 | 13.0 | 0.00 | 0.00 | 0.00 | 78 | 1012.9 |
| 20260506111503 | 50 | 15 | 6.0 | 12.0 | 0.00 | 0.00 | 0.00 | 77 | 1012.9 |
| 20260506111003 | 50 | 18 | 4.0 | 11.0 | 0.00 | 0.00 | 0.00 | 77 | 1012.7 |
| 20260506110503 | 50 | 11 | 3.0 | 9.0 | 0.00 | 0.00 | 0.00 | 77 | 1012.7 |
| 20260506110003 | 50 | 2 | 5.0 | 13.0 | 0.00 | 0.00 | 0.00 | 76 | 1012.7 |
| 20260506105504 | 50 | 355 | 7.0 | 15.0 | 0.00 | 0.00 | 0.00 | 75 | 1012.7 |
| 20260506105004 | 50 | 354 | 6.0 | 15.0 | 0.00 | 0.00 | 0.00 | 74 | 1012.7 |
| 20260506104503 | 50 | 353 | 6.0 | 15.0 | 0.00 | 0.00 | 0.00 | 74 | 1012.7 |
| 20260506104003 | 50 | 352 | 7.0 | 13.0 | 0.00 | 0.00 | 0.00 | 73 | 1012.8 |
| 20260506103503 | 50 | 355 | 6.0 | 13.0 | 0.00 | 0.00 | 0.00 | 73 | 1012.8 |
| 20260506103004 | 50 | 352 | 5.0 | 11.0 | 0.00 | 0.00 | 0.00 | 74 | 1012.8 |
| 20260506102503 | 50 | 351 | 6.0 | 13.0 | 0.00 | 0.00 | 0.00 | 74 | 1012.8 |
| 20260506102003 | 50 | 2 | 6.0 | 13.0 | 0.00 | 0.00 | 0.00 | 74 | 1012.8 |
| 20260506101503 | 50 | 12 | 6.0 | 12.0 | 0.00 | 0.00 | 0.00 | 75 | 1012.8 |
| 20260506101003 | 50 | 8 | 7.0 | 12.0 | 0.00 | 0.00 | 0.00 | 76 | 1012.8 |
| 20260506100504 | 50 | 8 | 7.0 | 13.0 | 0.00 | 0.00 | 0.00 | 76 | 1012.8 |
| 20260506100005 | 50 | 10 | 5.0 | 13.0 | 0.00 | 0.00 | 0.00 | 77 | 1012.8 |
| 20260506095505 | 50 | 8 | 6.0 | 12.0 | 0.00 | 0.00 | 0.00 | 78 | 1012.8 |
| 20260506095004 | 50 | 13 | 7.0 | 14.0 | 0.00 | 0.00 | 0.00 | 76 | 1012.8 |
| 20260506094503 | 50 | 8 | 8.0 | 15.0 | 0.00 | 0.00 | 0.00 | 73 | 1012.8 |
| 20260506094004 | 50 | 2 | 8.0 | 17.0 | 0.00 | 0.00 | 0.00 | 73 | 1012.8 |
| 20260506093718 | 50 | 1 | 8.0 | 17.0 | 0.00 | 0.00 | 0.00 | 73 | 1012.8 |
| 20260506093004 | 50 | 359 | 10.0 | 18.0 | 0.00 | 0.00 | 0.00 | 71 | 1012.8 |
| 20260506092713 | 50 | 358 | 9.0 | 18.0 | 0.00 | 0.00 | 0.00 | 71 | 1012.6 |
| 20260506092003 | 51 | 353 | 7.0 | 13.0 | 0.00 | 0.00 | 0.00 | 70 | 1012.6 |
| 20260506091504 | 51 | 351 | 8.0 | 18.0 | 0.00 | 0.00 | 0.00 | 70 | 1012.6 |
| 20260506091003 | 52 | 357 | 10.0 | 20.0 | 0.00 | 0.00 | 0.00 | 70 | 1012.6 |
| 20260506090503 | 51 | 360 | 10.0 | 20.0 | 0.00 | 0.00 | 0.00 | 69 | 1012.6 |
| 20260506090005 | 50 | 356 | 10.0 | 19.0 | 0.00 | 0.00 | 0.00 | 71 | 1012.6 |
| 20260506085503 | 51 | 356 | 9.0 | 20.0 | 0.00 | 0.00 | 0.00 | 69 | 1012.6 |
| 20260506085004 | 51 | 3 | 8.0 | 20.0 | 0.00 | 0.00 | 0.00 | 71 | 1012.6 |
| 20260506084503 | 50 | 1 | 9.0 | 16.0 | 0.00 | 0.00 | 0.00 | 72 | 1012.6 |
| 20260506084215 | 50 | 357 | 10.0 | 17.0 | 0.00 | 0.00 | 0.00 | 71 | 1012.6 |
| 20260506083504 | 50 | 350 | 9.0 | 17.0 | 0.00 | 0.00 | 0.00 | 71 | 1012.6 |
| 20260506083003 | 50 | 354 | 9.0 | 17.0 | 0.00 | 0.00 | 0.00 | 72 | 1012.6 |
| 20260506082504 | 50 | 1 | 8.0 | 17.0 | 0.00 | 0.00 | 0.00 | 76 | 1012.6 |
| 20260506082217 | 49 | 3 | 8.0 | 15.0 | 0.00 | 0.00 | 0.00 | 75 | 1012.6 |
| 20260506081715 | 48 | 355 | 8.0 | 15.0 | 0.00 | 0.00 | 0.00 | 75 | 1012.6 |
| 20260506081003 | 49 | 350 | 8.0 | 15.0 | 0.00 | 0.00 | 0.00 | 74 | 1012.5 |
| 20260506080504 | 49 | 351 | 8.0 | 15.0 | 0.00 | 0.00 | 0.00 | 74 | 1012.5 |
| 20260506073503 | 48 | 351 | 7.0 | 14.0 | 0.00 | 0.00 | 0.00 | 76 | 1012.5 |
| 20260506073004 | 48 | 345 | 8.0 | 14.0 | 0.00 | 0.00 | 0.00 | 78 | 1012.5 |
| 20260506072715 | 48 | 347 | 8.0 | 15.0 | 0.00 | 0.00 | 0.00 | 78 | 1012.5 |
| 20260506072003 | 47 | 348 | 8.0 | 15.0 | 0.00 | 0.00 | 0.00 | 78 | 1012.5 |
| 20260506071503 | 47 | 346 | 8.0 | 14.0 | 0.00 | 0.00 | 0.00 | 79 | 1012.5 |
| 20260506071004 | 47 | 347 | 7.0 | 13.0 | 0.00 | 0.00 | 0.00 | 79 | 1012.5 |
| 20260506070503 | 47 | 344 | 8.0 | 14.0 | 0.00 | 0.00 | 0.00 | 80 | 1012.5 |
| 20260506062503 | 45 | 345 | 7.0 | 13.0 | 0.00 | 0.00 | 0.00 | 83 | 1012.3 |
| 20260506062003 | 45 | 342 | 6.0 | 12.0 | 0.00 | 0.00 | 0.00 | 83 | 1012.3 |
| 20260506061503 | 45 | 347 | 6.0 | 12.0 | 0.00 | 0.00 | 0.00 | 83 | 1012.3 |
| 20260506061003 | 44 | 353 | 6.0 | 13.0 | 0.00 | 0.00 | 0.00 | 83 | 1012.2 |
| 20260506060503 | 44 | 349 | 6.0 | 13.0 | 0.00 | 0.00 | 0.00 | 83 | 1012.2 |
| 20260506051003 | 44 | 347 | 4.0 | 11.0 | 0.00 | 0.00 | 0.00 | 85 | 1012.1 |
| 20260506050504 | 44 | 348 | 4.0 | 6.0 | 0.00 | 0.00 | 0.00 | 85 | 1012.1 |
| 20260506044503 | 44 | 344 | 4.0 | 9.0 | 0.00 | 0.00 | 0.00 | 84 | 1012.1 |
| 20260506044004 | 44 | 347 | 4.0 | 7.0 | 0.00 | 0.00 | 0.00 | 84 | 1012.1 |
| 20260506043505 | 44 | 351 | 3.0 | 7.0 | 0.00 | 0.00 | 0.00 | 84 | 1012.1 |
| 20260506043003 | 44 | 354 | 3.0 | 6.0 | 0.00 | 0.00 | 0.00 | 83 | 1012.1 |
| 20260506042503 | 44 | 356 | 4.0 | 10.0 | 0.00 | 0.00 | 0.00 | 83 | 1012.1 |
| 20260506042215 | 44 | 358 | 4.0 | 12.0 | 0.00 | 0.00 | 0.00 | 83 | 1012.1 |
| 20260506041504 | 44 | 358 | 7.0 | 14.0 | 0.00 | 0.00 | 0.00 | 83 | 1012.1 |
| 20260506041003 | 45 | 357 | 7.0 | 13.0 | 0.00 | 0.00 | 0.00 | 83 | 1012.1 |
| 20260506040713 | 45 | 356 | 7.0 | 13.0 | 0.00 | 0.00 | 0.00 | 83 | 1012.1 |
| 20260506040004 | 45 | 354 | 6.0 | 12.0 | 0.00 | 0.00 | 0.00 | 83 | 1012.1 |
| 20260506035714 | 45 | 354 | 5.0 | 12.0 | 0.00 | 0.00 | 0.00 | 83 | 1012.1 |
| 20260506035003 | 45 | 357 | 5.0 | 14.0 | 0.00 | 0.00 | 0.00 | 83 | 1012.1 |
| 20260506034503 | 45 | 357 | 5.0 | 14.0 | 0.00 | 0.00 | 0.00 | 83 | 1012.1 |
| 20260506034005 | 45 | 358 | 5.0 | 14.0 | 0.00 | 0.00 | 0.00 | 83 | 1012.0 |
| 20260506033503 | 45 | 3 | 5.0 | 12.0 | 0.00 | 0.00 | 0.00 | 83 | 1012.0 |
| 20260506033214 | 45 | 4 | 6.0 | 12.0 | 0.00 | 0.00 | 0.00 | 83 | 1012.0 |
| 20260506032504 | 45 | 357 | 6.0 | 14.0 | 0.00 | 0.00 | 0.00 | 83 | 1012.1 |
| 20260506032003 | 46 | 354 | 5.0 | 9.0 | 0.00 | 0.00 | 0.00 | 83 | 1012.1 |
| 20260506031503 | 46 | 359 | 5.0 | 13.0 | 0.00 | 0.00 | 0.00 | 82 | 1012.1 |
| 20260506031003 | 46 | 2 | 5.0 | 13.0 | 0.00 | 0.00 | 0.00 | 82 | 1012.2 |
| 20260506030503 | 46 | 3 | 5.0 | 12.0 | 0.00 | 0.00 | 0.00 | 82 | 1012.2 |
| 20260506030003 | 46 | 2 | 4.0 | 12.0 | 0.00 | 0.00 | 0.00 | 82 | 1012.2 |
| 20260506025503 | 46 | 1 | 4.0 | 12.0 | 0.00 | 0.00 | 0.00 | 82 | 1012.3 |
| 20260506025003 | 46 | 3 | 5.0 | 12.0 | 0.00 | 0.00 | 0.00 | 82 | 1012.3 |
| 20260506024503 | 46 | 4 | 4.0 | 12.0 | 0.00 | 0.00 | 0.00 | 82 | 1012.3 |
| 20260506024003 | 46 | 2 | 5.0 | 13.0 | 0.00 | 0.00 | 0.00 | 82 | 1012.1 |
| 20260506023717 | 46 | 2 | 6.0 | 13.0 | 0.00 | 0.00 | 0.00 | 81 | 1012.1 |
| 20260506023004 | 46 | 1 | 4.0 | 13.0 | 0.00 | 0.00 | 0.00 | 81 | 1012.1 |
| 20260506022504 | 46 | 2 | 4.0 | 9.0 | 0.00 | 0.00 | 0.00 | 81 | 1012.3 |
| 20260506022003 | 46 | 7 | 4.0 | 12.0 | 0.00 | 0.00 | 0.00 | 81 | 1012.3 |
| 20260506021503 | 46 | 3 | 6.0 | 15.0 | 0.00 | 0.00 | 0.00 | 81 | 1012.3 |
| 20260506021003 | 46 | 359 | 6.0 | 15.0 | 0.00 | 0.00 | 0.00 | 81 | 1012.4 |
| 20260506020503 | 46 | 6 | 4.0 | 12.0 | 0.00 | 0.00 | 0.00 | 81 | 1012.4 |
| 20260506020004 | 46 | 9 | 4.0 | 12.0 | 0.00 | 0.00 | 0.00 | 81 | 1012.4 |
| 20260506015503 | 46 | 5 | 5.0 | 12.0 | 0.00 | 0.00 | 0.00 | 81 | 1012.5 |
| 20260506015003 | 46 | 6 | 5.0 | 13.0 | 0.00 | 0.00 | 0.00 | 81 | 1012.5 |
| 20260506014503 | 46 | 2 | 5.0 | 13.0 | 0.00 | 0.00 | 0.00 | 81 | 1012.5 |
| 20260506014003 | 46 | 358 | 5.0 | 12.0 | 0.00 | 0.00 | 0.00 | 81 | 1012.5 |
| 20260506013503 | 46 | 1 | 5.0 | 12.0 | 0.00 | 0.00 | 0.00 | 80 | 1012.5 |
| 20260506013003 | 46 | 3 | 5.0 | 11.0 | 0.00 | 0.00 | 0.00 | 80 | 1012.5 |
| 20260506012504 | 46 | 6 | 5.0 | 12.0 | 0.00 | 0.00 | 0.00 | 80 | 1012.6 |
| 20260506012003 | 47 | 5 | 4.0 | 12.0 | 0.00 | 0.00 | 0.00 | 80 | 1012.6 |
| 20260506011503 | 47 | 360 | 5.0 | 13.0 | 0.00 | 0.00 | 0.00 | 80 | 1012.6 |
| 20260506011004 | 47 | 1 | 7.0 | 13.0 | 0.00 | 0.00 | 0.00 | 80 | 1012.5 |
| 20260506010504 | 47 | 4 | 5.0 | 13.0 | 0.00 | 0.00 | 0.00 | 81 | 1012.5 |
| 20260506010004 | 47 | 8 | 5.0 | 13.0 | 0.00 | 0.00 | 0.00 | 81 | 1012.5 |
| 20260506005503 | 47 | 11 | 5.0 | 12.0 | 0.00 | 0.00 | 0.00 | 81 | 1012.5 |
| 20260506005214 | 47 | 5 | 5.0 | 12.0 | 0.00 | 0.00 | 0.00 | 81 | 1012.5 |
| 20260506004717 | 47 | 7 | 5.0 | 13.0 | 0.00 | 0.00 | 0.00 | 81 | 1012.5 |